owner,sensor,date,latitude,longitude,vertical_datum,direction_of_sea_water_velocity,sea_water_speed,upward_sea_water_velocity,qcFlag 
TABS,ioos:station:wmo:42050:1,1998-09-01T00:00:00Z,28.8425,-94.2433,2.0,259.0479528,37.63542214,-99999.0,'11111222,11111222,99999999' 
TABS,ioos:station:wmo:42050:1,1998-09-01T00:30:00Z,28.8425,-94.2433,2.0,258.8644432,38.57622325,-99999.0,'11111222,11111222,99999999' 
TABS,ioos:station:wmo:42050:1,1998-09-01T01:00:00Z,28.8425,-94.2433,2.0,263.0707329,42.02693541,-99999.0,'11111222,11111222,99999999' 
TABS,ioos:station:wmo:42050:1,1998-09-01T01:30:00Z,28.8425,-94.2433,2.0,262.3281569,42.39948113,-99999.0,'11111222,11111222,99999999' 
TABS,ioos:station:wmo:42050:1,1998-09-01T02:00:00Z,28.8425,-94.2433,2.0,270.0004209,45.89,-99999.0,'11111222,11111222,99999999' 
TABS,ioos:station:wmo:42050:1,1998-09-01T02:30:00Z,28.8425,-94.2433,2.0,270.0004209,44.7,-99999.0,'11111222,11111222,99999999' 
TABS,ioos:station:wmo:42050:1,1998-09-01T03:00:00Z,28.8425,-94.2433,2.0,274.4038282,46.62763665,-99999.0,'11111222,11111222,99999999' 
TABS,ioos:station:wmo:42050:1,1998-09-01T03:30:00Z,28.8425,-94.2433,2.0,275.7493281,44.62444285,-99999.0,'11111222,11111222,99999999' 
TABS,ioos:station:wmo:42050:1,1998-09-01T04:00:00Z,28.8425,-94.2433,2.0,278.9473286,44.04591468,-99999.0,'11111222,11111222,99999999' 
TABS,ioos:station:wmo:42050:1,1998-09-01T04:30:00Z,28.8425,-94.2433,2.0,275.0832106,43.68176965,-99999.0,'11111222,11111222,99999999' 
TABS,ioos:station:wmo:42050:1,1998-09-01T05:00:00Z,28.8425,-94.2433,2.0,275.5898234,42.81356094,-99999.0,'11111222,11111222,99999999' 
TABS,ioos:station:wmo:42050:1,1998-09-01T05:30:00Z,28.8425,-94.2433,2.0,275.085669,40.38897498,-99999.0,'11111222,11111222,99999999' 
TABS,ioos:station:wmo:42050:1,1998-09-01T06:00:00Z,28.8425,-94.2433,2.0,276.5229187,41.99180039,-99999.0,'11111222,11111222,99999999' 
TABS,ioos:station:wmo:42050:1,1998-09-01T06:30:00Z,28.8425,-94.2433,2.0,274.5281457,41.54966667,-99999.0,'11111222,11111222,99999999' 
TABS,ioos:station:wmo:42050:1,1998-09-01T07:00:00Z,28.8425,-94.2433,2.0,271.267754,40.23984344,-99999.0,'11111222,11111222,99999999' 
TABS,ioos:station:wmo:42050:1,1998-09-01T07:30:00Z,28.8425,-94.2433,2.0,266.0725349,39.13187959,-99999.0,'11111222,11111222,99999999' 
TABS,ioos:station:wmo:42050:1,1998-09-01T08:00:00Z,28.8425,-94.2433,2.0,262.4642851,36.37411855,-99999.0,'11111222,11111222,99999999' 
TABS,ioos:station:wmo:42050:1,1998-09-01T08:30:00Z,28.8425,-94.2433,2.0,265.7840906,36.45863409,-99999.0,'11111222,11111222,99999999' 
TABS,ioos:station:wmo:42050:1,1998-09-01T09:00:00Z,28.8425,-94.2433,2.0,262.6946656,35.15533814,-99999.0,'11111222,11111222,99999999' 
TABS,ioos:station:wmo:42050:1,1998-09-01T09:30:00Z,28.8425,-94.2433,2.0,259.6211584,39.68934492,-99999.0,'11111222,11111222,99999999' 
TABS,ioos:station:wmo:42050:1,1998-09-01T10:00:00Z,28.8425,-94.2433,2.0,256.6265049,43.79759126,-99999.0,'11111222,11111222,99999999' 
TABS,ioos:station:wmo:42050:1,1998-09-01T10:30:00Z,28.8425,-94.2433,2.0,252.6188581,40.90782321,-99999.0,'11111222,11111222,99999999' 
TABS,ioos:station:wmo:42050:1,1998-09-01T11:00:00Z,28.8425,-94.2433,2.0,252.0599165,43.53670291,-99999.0,'11111222,11111222,99999999' 
TABS,ioos:station:wmo:42050:1,1998-09-01T11:30:00Z,28.8425,-94.2433,2.0,246.7448618,41.51254871,-99999.0,'11111222,11111222,99999999' 
TABS,ioos:station:wmo:42050:1,1998-09-01T12:00:00Z,28.8425,-94.2433,2.0,243.4278438,37.98185093,-99999.0,'11111222,11111222,99999999' 
TABS,ioos:station:wmo:42050:1,1998-09-01T12:30:00Z,28.8425,-94.2433,2.0,247.4684239,30.32465169,-99999.0,'11111222,11111222,99999999' 
TABS,ioos:station:wmo:42050:1,1998-09-01T13:00:00Z,28.8425,-94.2433,2.0,255.1582312,36.07345977,-99999.0,'11111222,11111222,99999999' 
TABS,ioos:station:wmo:42050:1,1998-09-01T13:30:00Z,28.8425,-94.2433,2.0,253.5438649,41.02023891,-99999.0,'11111222,11111222,99999999' 
TABS,ioos:station:wmo:42050:1,1998-09-01T14:00:00Z,28.8425,-94.2433,2.0,256.7555877,46.83568084,-99999.0,'11111222,11111222,99999999' 
TABS,ioos:station:wmo:42050:1,1998-09-01T14:30:00Z,28.8425,-94.2433,2.0,257.9091137,46.93102385,-99999.0,'11111222,11111222,99999999' 
TABS,ioos:station:wmo:42050:1,1998-09-01T15:00:00Z,28.8425,-94.2433,2.0,263.2501788,55.8168299,-99999.0,'11111222,11111222,99999999' 
TABS,ioos:station:wmo:42050:1,1998-09-01T15:30:00Z,28.8425,-94.2433,2.0,262.5914124,67.00934338,-99999.0,'11111222,11111222,99999999' 
TABS,ioos:station:wmo:42050:1,1998-09-01T16:00:00Z,28.8425,-94.2433,2.0,267.5542027,55.78079687,-99999.0,'11111222,11111222,99999999' 
TABS,ioos:station:wmo:42050:1,1998-09-01T16:30:00Z,28.8425,-94.2433,2.0,271.2621609,67.66640673,-99999.0,'11111222,11111222,99999999' 
TABS,ioos:station:wmo:42050:1,1998-09-01T17:00:00Z,28.8425,-94.2433,2.0,273.1785534,75.21568254,-99999.0,'11111222,11111222,99999999' 
TABS,ioos:station:wmo:42050:1,1998-09-01T17:30:00Z,28.8425,-94.2433,2.0,274.7843363,75.06149212,-99999.0,'11111222,11111222,99999999' 
TABS,ioos:station:wmo:42050:1,1998-09-01T18:00:00Z,28.8425,-94.2433,2.0,273.6492265,74.95193727,-99999.0,'11111222,11111222,99999999' 
TABS,ioos:station:wmo:42050:1,1998-09-01T18:30:00Z,28.8425,-94.2433,2.0,268.8110763,71.83545434,-99999.0,'11111222,11111222,99999999' 
TABS,ioos:station:wmo:42050:1,1998-09-01T19:00:00Z,28.8425,-94.2433,2.0,263.2925704,71.40869695,-99999.0,'11111222,11111222,99999999' 
TABS,ioos:station:wmo:42050:1,1998-09-01T19:30:00Z,28.8425,-94.2433,2.0,264.7369861,71.52147929,-99999.0,'11111222,11111222,99999999' 
TABS,ioos:station:wmo:42050:1,1998-09-01T20:00:00Z,28.8425,-94.2433,2.0,262.6684808,72.41194653,-99999.0,'11111222,11111222,99999999' 
TABS,ioos:station:wmo:42050:1,1998-09-01T20:30:00Z,28.8425,-94.2433,2.0,258.7874304,68.96630047,-99999.0,'11111222,11111222,99999999' 
TABS,ioos:station:wmo:42050:1,1998-09-01T21:00:00Z,28.8425,-94.2433,2.0,260.2469129,66.82575851,-99999.0,'11111222,11111222,99999999' 
TABS,ioos:station:wmo:42050:1,1998-09-01T21:30:00Z,28.8425,-94.2433,2.0,258.9363803,68.31965017,-99999.0,'11111222,11111222,99999999' 
TABS,ioos:station:wmo:42050:1,1998-09-01T22:00:00Z,28.8425,-94.2433,2.0,259.3763209,67.91401107,-99999.0,'11111222,11111222,99999999' 
TABS,ioos:station:wmo:42050:1,1998-09-01T22:30:00Z,28.8425,-94.2433,2.0,261.0792279,67.26356666,-99999.0,'11111222,11111222,99999999' 
TABS,ioos:station:wmo:42050:1,1998-09-01T23:00:00Z,28.8425,-94.2433,2.0,260.4925296,63.14731427,-99999.0,'11111222,11111222,99999999' 
TABS,ioos:station:wmo:42050:1,1998-09-01T23:30:00Z,28.8425,-94.2433,2.0,261.9104052,61.40092589,-99999.0,'11111222,11111222,99999999' 
 
DISCLAIMER: The Gulf of Mexico Coastal and Ocean Observing (GCOOS) Data Portal aggregates data from the regional data providers for the convenience of all data users. Data published on this website should not be used for navigation or certain other uses as we cannot guarantee data accuracy or availability. The data and delivery services are provided 'as is' without warranty of any kind. Data Source: Gulf of Mexico Coastal Ocean Observing System Data Portal (http://data.gcoos.org/) 
